• In United Kingdom
  • List of Countries
  • For 7 days
  • Water Temperature
  • Satellite Maps
  • Weather Map
  • Weather Widgets
  • user-avatar
    Login

    Hourly Weather Lubumbashi

    Today, 18 January, Thursday

    Time Temperature Precipitation Wind Pressure Humidity
    00:00 +19°C° 0 mm 5 mps 720 mmHg 20%
    01:00 +19°C° 0 mm 5 mps 720 mmHg 20%
    02:00 +17°C° 0 mm 5 mps 720 mmHg 20%
    03:00 +17°C° 0 mm 5 mps 720 mmHg 21%
    04:00 +16°C° 0 mm 5 mps 720 mmHg 21%
    05:00 +16°C° 0 mm 5 mps 720 mmHg 22%
    06:00 +17°C° 0 mm 5 mps 721 mmHg 21%
    07:00 +19°C° 0 mm 6 mps 721 mmHg 20%
    08:00 +19°C° 0 mm 6 mps 722 mmHg 19%
    09:00 +22°C° 0 mm 6 mps 722 mmHg 17%
    10:00 +26°C° 0 mm 6 mps 722 mmHg 15%
    11:00 +29°C° 0 mm 6 mps 723 mmHg 13%
    12:00 +32°C° 0 mm 6 mps 722 mmHg 12%
    13:00 +33°C° 0 mm 5 mps 721 mmHg 11%
    14:00 +34°C° 0 mm 4 mps 721 mmHg 10%
    15:00 +34°C° 0 mm 4 mps 720 mmHg 10%
    16:00 +34°C° 0 mm 4 mps 720 mmHg 10%
    17:00 +34°C° 0 mm 4 mps 719 mmHg 9%
    18:00 +30°C° 0 mm 4 mps 720 mmHg 11%
    19:00 +28°C° 0 mm 5 mps 720 mmHg 13%
    20:00 +25°C° 0 mm 5 mps 720 mmHg 15%
    21:00 +23°C° 0 mm 5 mps 720 mmHg 16%
    22:00 +22°C° 0 mm 6 mps 720 mmHg 16%
    23:00 +22°C° 0 mm 6 mps 721 mmHg 17%

    Tomorrow, 19 January, Friday

    Time Temperature Precipitation Wind Pressure Humidity
    00:00 +21°C° 0 mm 6 mps 720 mmHg 18%
    01:00 +20°C° 0 mm 6 mps 720 mmHg 19%
    02:00 +19°C° 0 mm 6 mps 720 mmHg 20%
    03:00 +19°C° 0 mm 6 mps 720 mmHg 20%
    04:00 +17°C° 0 mm 6 mps 720 mmHg 21%
    05:00 +17°C° 0 mm 6 mps 720 mmHg 21%
    06:00 +17°C° 0 mm 7 mps 720 mmHg 20%
    07:00 +18°C° 0 mm 7 mps 721 mmHg 20%
    08:00 +18°C° 0 mm 8 mps 722 mmHg 19%
    09:00 +22°C° 0 mm 8 mps 722 mmHg 17%
    10:00 +24°C° 0 mm 8 mps 722 mmHg 14%
    11:00 +28°C° 0 mm 8 mps 723 mmHg 12%
    12:00 +29°C° 0 mm 7 mps 722 mmHg 11%
    13:00 +32°C° 0 mm 7 mps 721 mmHg 9%
    14:00 +34°C° 0 mm 6 mps 720 mmHg 8%
    15:00 +33°C° 0 mm 6 mps 720 mmHg 8%
    16:00 +33°C° 0 mm 6 mps 720 mmHg 8%
    17:00 +33°C° 0 mm 6 mps 719 mmHg 8%
    18:00 +29°C° 0 mm 6 mps 720 mmHg 10%
    19:00 +27°C° 0 mm 6 mps 720 mmHg 11%
    20:00 +23°C° 0 mm 6 mps 720 mmHg 13%
    21:00 +22°C° 0 mm 6 mps 721 mmHg 14%
    22:00 +21°C° 0 mm 6 mps 721 mmHg 14%
    23:00 +20°C° 0 mm 6 mps 721 mmHg 15%

    Day after tomorrow, 20 January, Saturday

    Time Temperature Precipitation Wind Pressure Humidity
    00:00 +19°C° 0 mm 6 mps 721 mmHg 15%
    01:00 +19°C° 0 mm 6 mps 721 mmHg 16%
    02:00 +17°C° 0 mm 6 mps 720 mmHg 17%
    03:00 +16°C° 0 mm 6 mps 720 mmHg 17%
    04:00 +16°C° 0 mm 6 mps 720 mmHg 18%
    05:00 +15°C° 0 mm 6 mps 720 mmHg 18%
    06:00 +16°C° 0 mm 6 mps 721 mmHg 18%
    07:00 +16°C° 0 mm 7 mps 721 mmHg 17%
    08:00 +17°C° 0 mm 7 mps 722 mmHg 17%
    09:00 +21°C° 0 mm 7 mps 722 mmHg 15%
    10:00 +24°C° 0 mm 7 mps 722 mmHg 12%
    11:00 +28°C° 0 mm 7 mps 723 mmHg 10%
    12:00 +30°C° 0 mm 7 mps 722 mmHg 9%
    13:00 +32°C° 0 mm 6 mps 721 mmHg 8%
    14:00 +34°C° 0 mm 6 mps 720 mmHg 7%
    15:00 +34°C° 0 mm 5 mps 719 mmHg 7%
    16:00 +34°C° 0 mm 5 mps 719 mmHg 7%
    17:00 +34°C° 0 mm 5 mps 719 mmHg 7%
    18:00 +30°C° 0 mm 5 mps 719 mmHg 9%
    19:00 +28°C° 0 mm 5 mps 719 mmHg 10%
    20:00 +25°C° 0 mm 4 mps 720 mmHg 12%
    21:00 +23°C° 0 mm 5 mps 720 mmHg 12%
    22:00 +22°C° 0 mm 5 mps 720 mmHg 13%
    23:00 +21°C° 0 mm 5 mps 720 mmHg 13%

    21 January, Sunday

    Time Temperature Precipitation Wind Pressure Humidity
    00:00 +20°C° 0 mm 5 mps 720 mmHg 14%
    01:00 +19°C° 0 mm 5 mps 719 mmHg 15%
    02:00 +19°C° 0 mm 5 mps 719 mmHg 16%
    03:00 +17°C° 0 mm 5 mps 719 mmHg 17%
    04:00 +17°C° 0 mm 5 mps 719 mmHg 18%
    05:00 +16°C° 0 mm 5 mps 719 mmHg 18%
    06:00 +17°C° 0 mm 5 mps 720 mmHg 18%
    07:00 +19°C° 0 mm 6 mps 720 mmHg 17%
    08:00 +20°C° 0 mm 6 mps 721 mmHg 16%
    09:00 +23°C° 0 mm 6 mps 721 mmHg 15%
    10:00 +27°C° 0 mm 6 mps 721 mmHg 14%
    11:00 +32°C° 0 mm 6 mps 721 mmHg 13%
    12:00 +33°C° 0 mm 5 mps 720 mmHg 11%
    13:00 +35°C° 0 mm 4 mps 719 mmHg 10%
    14:00 +36°C° 0 mm 3 mps 718 mmHg 8%
    15:00 +36°C° 0 mm 3 mps 718 mmHg 8%
    16:00 +36°C° 0 mm 3 mps 718 mmHg 8%
    17:00 +37°C° 0 mm 3 mps 718 mmHg 8%
    18:00 +34°C° 0 mm 3 mps 718 mmHg 10%
    19:00 +30°C° 0 mm 3 mps 719 mmHg 11%
    20:00 +27°C° 0 mm 4 mps 719 mmHg 13%
    21:00 +26°C° 0 mm 4 mps 719 mmHg 14%
    22:00 +26°C° 0 mm 4 mps 719 mmHg 14%
    23:00 +25°C° 0 mm 4 mps 719 mmHg 15%

    22 January, Monday

    Time Temperature Precipitation Wind Pressure Humidity
    00:00 +23°C° 0 mm 4 mps 719 mmHg 16%
    01:00 +22°C° 0 mm 4 mps 719 mmHg 16%
    02:00 +21°C° 0 mm 5 mps 718 mmHg 17%
    03:00 +21°C° 0 mm 5 mps 718 mmHg 18%
    04:00 +20°C° 0 mm 5 mps 718 mmHg 19%
    05:00 +20°C° 0 mm 5 mps 718 mmHg 20%
    06:00 +21°C° 0 mm 6 mps 719 mmHg 20%
    07:00 +22°C° 0 mm 6 mps 719 mmHg 19%
    08:00 +23°C° 0 mm 7 mps 720 mmHg 18%
    09:00 +27°C° 0 mm 7 mps 720 mmHg 16%
    10:00 +30°C° 0 mm 7 mps 720 mmHg 14%
    11:00 +34°C° 0 mm 6 mps 721 mmHg 11%
    12:00 +36°C° 0 mm 6 mps 720 mmHg 10%
    13:00 +37°C° 0 mm 5 mps 719 mmHg 9%
    14:00 +39°C° 0 mm 5 mps 718 mmHg 7%
    15:00 +39°C° 0 mm 5 mps 718 mmHg 8%
    16:00 +39°C° 0 mm 5 mps 718 mmHg 8%
    17:00 +39°C° 0 mm 5 mps 718 mmHg 8%
    18:00 +35°C° 0 mm 5 mps 718 mmHg 10%
    19:00 +32°C° 0 mm 5 mps 718 mmHg 11%
    20:00 +29°C° 0 mm 6 mps 719 mmHg 13%
    21:00 +28°C° 0 mm 6 mps 719 mmHg 13%
    22:00 +27°C° 0 mm 7 mps 719 mmHg 14%
    23:00 +26°C° 0 mm 7 mps 719 mmHg 14%

    23 January, Tuesday

    Time Temperature Precipitation Wind Pressure Humidity
    00:00 +24°C° 0 mm 7 mps 719 mmHg 14%
    01:00 +24°C° 0 mm 7 mps 719 mmHg 14%
    02:00 +23°C° 0 mm 7 mps 718 mmHg 15%
    03:00 +22°C° 0 mm 7 mps 719 mmHg 15%
    04:00 +22°C° 0 mm 7 mps 719 mmHg 15%
    05:00 +21°C° 0 mm 6 mps 719 mmHg 15%
    06:00 +22°C° 0 mm 7 mps 719 mmHg 14%
    07:00 +22°C° 0 mm 8 mps 720 mmHg 13%
    08:00 +22°C° 0 mm 8 mps 720 mmHg 12%
    09:00 +26°C° 0 mm 8 mps 721 mmHg 11%
    10:00 +28°C° 0 mm 8 mps 721 mmHg 9%
    11:00 +32°C° 0 mm 8 mps 721 mmHg 8%
    12:00 +34°C° 0 mm 8 mps 720 mmHg 7%
    13:00 +35°C° 0 mm 8 mps 719 mmHg 6%
    14:00 +38°C° 0 mm 7 mps 718 mmHg 6%
    15:00 +36°C° 0 mm 7 mps 718 mmHg 6%
    16:00 +36°C° 0 mm 7 mps 718 mmHg 6%
    17:00 +35°C° 0 mm 7 mps 718 mmHg 6%
    18:00 +33°C° 0 mm 7 mps 718 mmHg 7%
    19:00 +29°C° 0 mm 6 mps 718 mmHg 7%
    20:00 +26°C° 0 mm 6 mps 719 mmHg 8%
    21:00 +24°C° 0 mm 6 mps 719 mmHg 8%
    22:00 +23°C° 0 mm 6 mps 719 mmHg 8%
    23:00 +22°C° 0 mm 6 mps 719 mmHg 9%
    Show more